Norfolk, NE

4:28 PM CDT on August 24, 2016 (GMT -0500)
Stefan Memorial

Weather History for KOFK - February, 2012

Change the Weather History Date:

Monday, February 20, 2012

  Actual Average Record
Temperature  
Mean Temperature 36 °F 28 °F  
Max Temperature 39 °F 38 °F 66 °F (1930)
Min Temperature 33 °F 18 °F -16 °F (1918)
Degree Days  
Heating Degree Days 29 37  
Month to date heating degree days 754 787  
Since 1 July heating degree days 4333 4809  
Cooling Degree Days 0 0  
Month to date cooling degree days 0 0  
Year to date cooling degree days 0 0  
Moisture  
Dew Point 33 °F    
Average Humidity 80    
Maximum Humidity 100    
Minimum Humidity 59    
Precipitation  
Precipitation 0.31 in 0.03 in 0.53 in (1962)
Month to date precipitation 0.83 0.51  
Year to date precipitation 1.01 1.10  
Snow  
Snow T in 0.20 in - ()
Month to date snowfall 3.1 4.1  
Since 1 July snowfall 13.3 21.4  
Snow Depth 0.00 in    
Sea Level Pressure  
Sea Level Pressure 29.68 in    
Wind  
Wind Speed 14 mph (SE)    
Max Wind Speed 22 mph    
Max Gust Speed 29 mph    
Visibility 5 miles    
Events Rain , Snow    
T = Trace of Precipitation, MM = Missing Value Source: NWS Daily Summary

Daily Weather History Graph

Daily Weather History Graph

Search for Another Location

Airport or City:

Trip Planner

Search our weather history database for the weather conditions in past years. The results will help you decide how hot, cold, wet, or windy it might be!

Date:

Astronomy

Feb. 20, 2012 Rise Set
Actual Time 7:19 AM CST 6:08 PM CST
Civil Twilight 6:50 AM CST 6:36 PM CST
Nautical Twilight 6:18 AM CST 7:09 PM CST
Astronomical Twilight 5:46 AM CST 7:41 PM CST
Moon 6:17 AM CST (2/20) 5:14 PM CST (2/20)
Length of Visible Light 11h 45m
Length of Day
10h 49m
Waning Crescent, 1% of the Moon is Illuminated
Feb 20
Waning Crescent
Feb 21
New
Feb 29
First Quarter
Mar 8
Full
Mar 14
Last Quarter

Hourly Weather History & Observations

Time (CST) Temp. Windchill Dew Point Humidity Pressure Visibility Wind Dir Wind Speed Gust Speed Precip Events Conditions
12:56 AM 37.0 °F 27.4 °F 25.0 °F 62% 29.88 in 10.0 mi SE 17.3 mph 28.8 mph N/A   Overcast
1:56 AM 37.0 °F 27.0 °F 26.1 °F 65% 29.87 in 10.0 mi SE 18.4 mph 24.2 mph N/A   Overcast
2:56 AM 36.0 °F 26.7 °F 26.1 °F 67% 29.85 in 10.0 mi SE 15.0 mph - N/A   Overcast
3:56 AM 36.0 °F 25.6 °F 26.1 °F 67% 29.84 in 10.0 mi SE 18.4 mph 25.3 mph N/A   Overcast
4:37 AM 35.6 °F 25.9 °F 26.6 °F 70% 29.78 in 10.0 mi ESE 16.1 mph - N/A   Overcast
4:56 AM 35.1 °F 24.8 °F 26.1 °F 70% 29.82 in 10.0 mi ESE 17.3 mph 23.0 mph N/A   Overcast
5:44 AM 33.8 °F 23.5 °F 26.6 °F 75% 29.76 in 2.0 mi SE 16.1 mph 23.0 mph 0.00 in Snow Light Snow
5:56 AM 33.1 °F 23.4 °F 28.0 °F 82% 29.80 in 2.5 mi SE 13.8 mph 23.0 mph 0.00 in Snow Light Snow
6:16 AM 33.8 °F 24.3 °F 28.4 °F 81% 29.75 in 6.0 mi SE 13.8 mph - 0.03 in Snow Light Snow
6:56 AM 33.1 °F 23.0 °F 30.0 °F 89% 29.77 in 6.0 mi SE 15.0 mph 21.9 mph 0.05 in Rain Light Rain
8:12 AM 33.8 °F 23.2 °F 30.2 °F 87% 29.71 in 4.0 mi ESE 17.3 mph - 0.01 in Rain Rain
8:56 AM 34.0 °F 23.8 °F 30.0 °F 85% 29.73 in 6.0 mi SE 16.1 mph 24.2 mph 0.03 in Rain Light Rain
10:56 AM 34.0 °F 24.2 °F 30.9 °F 89% 29.70 in 7.0 mi ESE 15.0 mph - N/A   Overcast
11:56 AM 36.0 °F 26.0 °F 33.1 °F 89% 29.68 in 6.0 mi SE 17.3 mph 23.0 mph N/A   Overcast
12:23 PM 35.6 °F 26.2 °F 33.8 °F 93% 29.63 in 2.0 mi SE 15.0 mph - N/A   Overcast
12:46 PM 37.4 °F 28.9 °F 33.8 °F 87% 29.62 in 1.8 mi SE 13.8 mph - N/A   Overcast
12:54 PM 37.4 °F 28.5 °F 33.8 °F 87% 29.61 in 2.0 mi SE 15.0 mph - N/A   Overcast
12:56 PM 37.0 °F 27.7 °F 35.1 °F 93% 29.65 in 2.5 mi SE 16.1 mph - N/A   Overcast
1:18 PM 37.4 °F 28.9 °F 35.6 °F 93% 29.60 in 1.8 mi SE 13.8 mph - N/A   Overcast
1:56 PM 37.0 °F 29.3 °F 35.1 °F 93% 29.62 in 1.5 mi SE 11.5 mph - 0.00 in   Overcast
2:27 PM 37.4 °F 29.3 °F 35.6 °F 93% 29.58 in 2.0 mi SE 12.7 mph - 0.01 in Rain Light Rain
2:56 PM 37.9 °F 30.0 °F 36.0 °F 93% 29.61 in 1.8 mi SE 12.7 mph - 0.01 in   Overcast
3:56 PM 37.9 °F 30.5 °F 37.0 °F 97% 29.59 in 1.0 mi SE 11.5 mph - N/A   Overcast
4:19 PM 37.4 °F 30.3 °F 37.4 °F 100% 29.56 in 0.8 mi SE 10.4 mph - N/A   Overcast
4:41 PM 39.2 °F 32.0 °F 37.4 °F 93% 29.55 in 1.0 mi SE 11.5 mph - N/A   Overcast
4:56 PM 39.0 °F 31.8 °F 37.0 °F 93% 29.59 in 1.0 mi SE 11.5 mph - N/A   Overcast
5:31 PM 39.2 °F 33.0 °F 37.4 °F 93% 29.55 in 0.8 mi SE 9.2 mph - N/A   Overcast
5:45 PM 39.2 °F 33.0 °F 37.4 °F 93% 29.56 in 1.0 mi SE 9.2 mph - 0.00 in Rain Light Rain
5:56 PM 39.0 °F 32.8 °F 37.9 °F 96% 29.60 in 1.2 mi SSE 9.2 mph - 0.00 in   Overcast
6:56 PM 39.0 °F 34.8 °F 37.9 °F 96% 29.63 in 2.0 mi West 5.8 mph - 0.15 in Rain Rain
7:00 PM 39.2 °F 35.0 °F 37.4 °F 93% 29.59 in 3.0 mi WNW 5.8 mph - 0.01 in Rain Rain
7:07 PM 37.4 °F 32.8 °F 37.4 °F 100% 29.60 in 3.0 mi WNW 5.8 mph - 0.01 in Rain Light Rain
7:37 PM 37.4 °F 28.9 °F 35.6 °F 93% 29.60 in 3.0 mi NW 13.8 mph - 0.02 in   Overcast
7:44 PM 37.4 °F 28.5 °F 35.6 °F 93% 29.61 in 2.5 mi NW 15.0 mph 21.9 mph 0.02 in Rain Light Rain
7:53 PM 35.6 °F 25.2 °F 33.8 °F 93% 29.62 in 4.0 mi NW 18.4 mph 27.6 mph 0.02 in Rain Light Rain
7:56 PM 35.1 °F 24.8 °F 33.1 °F 92% 29.66 in 5.0 mi NW 17.3 mph 27.6 mph 0.02 in Rain Light Rain
8:56 PM 34.0 °F 23.8 °F 30.9 °F 89% 29.67 in 10.0 mi NW 16.1 mph 25.3 mph 0.00 in   Overcast
9:56 PM 34.0 °F 23.4 °F 30.9 °F 89% 29.71 in 10.0 mi NW 17.3 mph - N/A   Overcast
10:21 PM 33.8 °F 24.3 °F 30.2 °F 87% 29.68 in 10.0 mi NW 13.8 mph - N/A   Overcast
10:56 PM 34.0 °F 24.2 °F 30.0 °F 85% 29.72 in 10.0 mi NW 15.0 mph - N/A   Overcast
11:32 PM 33.8 °F 25.3 °F 30.2 °F 87% 29.69 in 10.0 mi WNW 11.5 mph - N/A   Overcast
11:56 PM 34.0 °F 25.5 °F 30.9 °F 89% 29.73 in 10.0 mi WNW 11.5 mph - N/A   Overcast